EW5093 Weather Reports


time (UTC)temp
F
wind
direction
speed
knots
gust
knots
rain 1hr
in
rain 24hr
in
rain mn
in
humidity
%
barometer
mb
20260503213032 92 313 1.7 7.0 0.00 0.00 0.00 26 1008.2
20260503212513 93 338 0.9 6.1 0.00 0.00 0.00 26 1008.3
20260503212012 92 332 0.9 7.0 0.00 0.00 0.00 26 1008.3
20260503211529 92 317 1.7 7.0 0.00 0.00 0.00 28 1008.5
20260503211011 92 343 1.7 5.2 0.00 0.00 0.00 29 1008.5
20260503210515 91 325 1.7 6.1 0.00 0.00 0.00 28 1008.6
20260503210030 91 288 0.9 7.8 0.00 0.00 0.00 28 1008.7
20260503205514 90 326 1.7 7.8 0.00 0.00 0.00 29 1008.7
20260503205014 91 342 0.9 6.1 0.00 0.00 0.00 31 1008.8
20260503204529 91 17 0.9 6.1 0.00 0.00 0.00 30 1008.8
20260503204013 90 0 0.9 7.0 0.00 0.00 0.00 31 1008.9
20260503203516 89 329 2.6 7.0 0.00 0.00 0.00 33 1008.9
20260503203041 89 293 0.9 7.0 0.00 0.00 0.00 33 1009.0
20260503202514 88 302 2.6 8.7 0.00 0.00 0.00 34 1009.1
20260503202013 88 266 2.6 8.7 0.00 0.00 0.00 34 1009.1
20260503201534 88 5 0.9 5.2 0.00 0.00 0.00 36 1009.2
20260503201013 88 5 1.7 5.2 0.00 0.00 0.00 35 1009.2
20260503200513 88 302 1.7 7.8 0.00 0.00 0.00 35 1009.3
20260503200035 87 99 1.7 7.8 0.00 0.00 0.00 36 1009.4
20260503195513 86 336 0.9 6.1 0.00 0.00 0.00 36 1009.3
20260503195013 87 334 1.7 5.2 0.00 0.00 0.00 36 1009.4
20260503194529 86 253 1.7 5.2 0.00 0.00 0.00 37 1009.4
20260503194013 86 316 0.9 5.2 0.00 0.00 0.00 37 1009.5
20260503193513 85 264 1.7 5.2 0.00 0.00 0.00 38 1009.6
20260503193029 85 0 0.9 7.0 0.00 0.00 0.00 39 1009.6
20260503192515 85 303 1.7 7.0 0.00 0.00 0.00 37 1009.8
20260503192014 85 17 1.7 5.2 0.00 0.00 0.00 39 1009.8
20260503191530 84 55 0.9 4.3 0.00 0.00 0.00 39 1009.8
20260503191014 83 5 0.9 5.2 0.00 0.00 0.00 40 1009.9
20260503190520 82 5 1.7 7.0 0.00 0.00 0.00 40 1009.9
20260503190037 82 5 1.7 7.0 0.00 0.00 0.00 40 1010.0
20260503185510 82 306 1.7 7.8 0.00 0.00 0.00 40 1010.0
20260503185013 82 53 2.6 7.8 0.00 0.00 0.00 41 1010.1
20260503184530 81 337 1.7 7.0 0.00 0.00 0.00 43 1010.1
20260503184012 80 278 1.7 7.8 0.00 0.00 0.00 43 1010.2
20260503183512 80 316 1.7 7.8 0.00 0.00 0.00 43 1010.2
20260503183030 79 250 1.7 7.8 0.00 0.00 0.00 45 1010.3
20260503182516 79 18 1.7 7.8 0.00 0.00 0.00 44 1010.4
20260503182011 78 5 1.7 7.8 0.00 0.00 0.00 45 1010.4
20260503181530 78 352 0.9 7.8 0.00 0.00 0.00 47 1010.5
20260503181013 78 325 1.7 7.8 0.00 0.00 0.00 45 1010.5
20260503180515 77 312 1.7 7.0 0.00 0.00 0.00 46 1010.7
20260503180032 77 0 0.9 7.0 0.00 0.00 0.00 47 1010.7
20260503175514 77 332 0.9 7.0 0.00 0.00 0.00 49 1010.8
20260503175013 76 288 1.7 7.0 0.00 0.00 0.00 47 1010.8
20260503174534 76 42 0.9 7.0 0.00 0.00 0.00 49 1010.9
20260503174016 75 323 0.9 7.0 0.00 0.00 0.00 49 1010.9
20260503173514 75 336 2.6 7.8 0.00 0.00 0.00 49 1011.0
20260503173050 75 343 2.6 7.8 0.00 0.00 0.00 49 1011.0
20260503172514 75 329 2.6 7.8 0.00 0.00 0.00 49 1011.0
20260503172011 74 329 1.7 7.0 0.00 0.00 0.00 51 1011.0
20260503171536 74 0 0.9 4.3 0.00 0.00 0.00 53 1011.0
20260503171016 72 340 0.9 6.1 0.00 0.00 0.00 53 1011.1
20260503170513 72 340 0.9 6.1 0.00 0.00 0.00 54 1011.1
20260503151013 63 0 0.0 2.6 0.00 0.00 0.00 72 1011.6
20260503150514 62 348 0.9 2.6 0.00 0.00 0.00 73 1011.5
20260503131013 56 0 0.0 0.0 0.00 0.00 0.00 83 1011.2
20260503130517 56 0 0.0 0.0 0.00 0.00 0.00 83 1011.2
20260503110513 58 0 0.0 0.0 0.00 0.00 0.00 81 1011.4
20260503081532 59 0 0.0 0.0 0.00 0.00 0.00 82 1011.6
20260503081014 59 0 0.0 0.0 0.00 0.00 0.00 82 1011.5
20260503080514 59 0 0.0 0.0 0.00 0.00 0.00 82 1011.5
20260503072514 60 0 0.0 0.0 0.00 0.00 0.00 80 1011.7
20260503072014 60 0 0.0 0.0 0.00 0.00 0.00 80 1011.7
20260503071531 60 0 0.0 0.0 0.00 0.00 0.00 80 1011.7
20260503071013 60 0 0.0 0.0 0.00 0.00 0.00 80 1011.7
20260503070517 60 0 0.0 0.0 0.00 0.00 0.00 80 1011.7
20260503055013 62 0 0.0 1.7 0.00 0.00 0.00 76 1011.5
20260503054531 62 0 0.0 1.7 0.00 0.00 0.00 75 1011.5
20260503054013 62 0 0.0 1.7 0.00 0.00 0.00 75 1011.5
20260503053514 62 0 0.0 1.7 0.00 0.00 0.00 75 1011.7
20260503053030 62 0 0.0 1.7 0.00 0.00 0.00 75 1011.7
20260503052516 62 290 0.0 2.6 0.00 0.00 0.00 75 1011.6
20260503052014 62 0 0.0 2.6 0.00 0.00 0.00 75 1011.6
20260503051531 63 0 0.0 2.6 0.00 0.00 0.00 74 1011.7
20260503051014 63 0 0.0 2.6 0.00 0.00 0.00 74 1011.8
20260503050515 63 0 0.0 0.0 0.00 0.00 0.00 74 1012.0
20260503050032 63 0 0.0 0.0 0.00 0.00 0.00 73 1012.0
20260503045514 63 0 0.0 0.0 0.00 0.00 0.00 73 1012.2
20260503045013 63 0 0.0 0.0 0.00 0.00 0.00 73 1012.1
20260503044534 63 0 0.0 0.0 0.00 0.00 0.00 73 1012.0
20260503044013 64 0 0.0 0.0 0.00 0.00 0.00 73 1012.0
20260503043513 64 0 0.0 0.0 0.00 0.00 0.00 73 1011.9
20260503043032 64 0 0.0 0.0 0.00 0.00 0.00 72 1011.8
20260503042510 64 0 0.0 0.0 0.00 0.00 0.00 72 1011.7
20260503042011 64 0 0.0 1.7 0.00 0.00 0.00 71 1011.7
20260503041533 65 0 0.0 1.7 0.00 0.00 0.00 70 1011.7
20260503041014 65 0 0.0 1.7 0.00 0.00 0.00 70 1011.7
20260503040513 65 0 0.0 1.7 0.00 0.00 0.00 69 1011.8
20260503040033 65 174 0.0 1.7 0.00 0.00 0.00 70 1011.8
20260503035513 65 172 0.0 4.3 0.00 0.00 0.00 69 1011.8
20260503035015 65 0 0.0 4.3 0.00 0.00 0.00 69 1011.6
20260503034530 66 192 0.9 4.3 0.00 0.00 0.00 68 1011.5
20260503034014 66 0 0.0 2.6 0.00 0.00 0.00 67 1011.5
20260503033515 66 0 0.0 2.6 0.00 0.00 0.00 67 1011.3
20260503033049 66 94 0.0 3.5 0.00 0.00 0.00 68 1011.4
20260503032515 67 0 0.0 4.3 0.00 0.00 0.00 67 1011.2
20260503032014 67 331 0.9 7.8 0.00 0.00 0.00 66 1011.1
20260503031536 66 325 1.7 9.6 0.00 0.00 0.00 66 1011.1
20260503031014 66 198 2.6 9.6 0.00 0.00 0.00 67 1011.1
20260503030514 66 126 2.6 9.6 0.00 0.00 0.00 67 1011.0
20260503030029 66 254 3.5 10.4 0.00 0.00 0.00 68 1011.1
20260503025513 66 161 5.2 10.4 0.00 0.00 0.00 68 1011.1
20260503025015 66 167 3.5 13.9 0.00 0.00 0.00 68 1011.0
20260503024532 66 169 6.1 13.9 0.00 0.00 0.00 67 1011.0
20260503024011 67 148 2.6 11.3 0.00 0.00 0.00 66 1011.0
20260503023512 67 202 6.1 12.2 0.00 0.00 0.00 66 1011.1
20260503023042 68 175 2.6 12.2 0.00 0.00 0.00 65 1010.9
20260503022513 69 196 3.5 11.3 0.00 0.00 0.00 64 1011.0
20260503022018 70 159 3.5 9.6 0.00 0.00 0.00 62 1010.9
20260503021532 70 216 2.6 9.6 0.00 0.00 0.00 61 1011.0
20260503021014 71 237 4.3 10.4 0.00 0.00 0.00 62 1011.0
20260503020514 71 171 4.3 10.4 0.00 0.00 0.00 60 1010.7
20260503020030 72 197 1.7 6.1 0.00 0.00 0.00 59 1010.5
20260503015514 72 167 1.7 6.1 0.00 0.00 0.00 58 1010.4
20260503015013 73 173 0.9 3.5 0.00 0.00 0.00 58 1010.4
20260503014530 73 166 0.0 3.5 0.00 0.00 0.00 57 1010.3
20260503014014 73 159 0.9 1.7 0.00 0.00 0.00 56 1010.3
20260503013514 74 157 0.0 2.6 0.00 0.00 0.00 55 1010.2
20260503013030 73 156 0.9 2.6 0.00 0.00 0.00 55 1010.3
20260503012512 74 0 0.0 1.7 0.00 0.00 0.00 54 1010.2
20260503012013 75 310 0.0 2.6 0.00 0.00 0.00 52 1010.1
20260503011533 75 300 0.9 3.5 0.00 0.00 0.00 53 1010.2
20260503011016 75 0 0.0 3.5 0.00 0.00 0.00 52 1010.2
20260503010514 75 269 0.9 3.5 0.00 0.00 0.00 52 1010.3
20260503010032 75 316 0.0 2.6 0.00 0.00 0.00 53 1010.2
20260503005513 76 305 0.9 3.5 0.00 0.00 0.00 51 1010.2
20260503005017 76 329 0.9 3.5 0.00 0.00 0.00 52 1010.2
20260503004556 76 0 0.0 3.5 0.00 0.00 0.00 52 1010.2
20260503004011 76 306 0.9 3.5 0.00 0.00 0.00 51 1010.2
20260503003513 75 286 0.0 2.6 0.00 0.00 0.00 53 1010.2
20260503003030 75 0 0.0 2.6 0.00 0.00 0.00 53 1010.2
20260503002519 75 0 0.9 2.6 0.00 0.00 0.00 52 1010.2
20260503002015 75 304 0.9 2.6 0.00 0.00 0.00 52 1010.2
20260503001532 74 0 0.9 3.5 0.00 0.00 0.00 53 1010.3
20260503001011 74 0 0.0 3.5 0.00 0.00 0.00 53 1010.3
20260503000510 74 280 0.9 3.5 0.00 0.00 0.00 53 1010.3
20260503000030 73 0 0.0 3.5 0.00 0.00 0.00 55 1010.4
20260502235513 73 313 0.9 3.5 0.00 0.00 0.00 54 1010.4
20260502235013 73 344 0.9 5.2 0.00 0.00 0.00 53 1010.5
20260502234529 73 288 0.9 5.2 0.00 0.00 0.00 53 1010.6
20260502234014 72 338 0.0 5.2 0.00 0.00 0.00 54 1010.7
20260502233513 73 278 0.9 6.1 0.00 0.00 0.00 53 1010.8
20260502233034 73 321 1.7 6.1 0.00 0.00 0.00 53 1010.8
20260502232514 72 310 0.0 5.2 0.00 0.00 0.00 56 1010.9
20260502232014 72 288 0.9 5.2 0.00 0.00 0.00 54 1011.0
20260502231530 72 319 0.9 3.5 0.00 0.00 0.00 55 1011.1
20260502231014 71 327 1.7 3.5 0.00 0.00 0.00 55 1011.2
20260502230514 71 0 0.9 5.2 0.00 0.00 0.00 57 1011.3
20260502230030 71 256 1.7 5.2 0.00 0.00 0.00 55 1011.3
20260502225515 71 339 1.7 4.3 0.00 0.00 0.00 56 1011.4
20260502225016 71 0 0.9 4.3 0.00 0.00 0.00 55 1011.5
20260502224530 72 319 0.9 4.3 0.00 0.00 0.00 55 1011.6
20260502224013 73 316 0.9 5.2 0.00 0.00 0.00 54 1011.7
20260502223513 72 0 0.9 5.2 0.00 0.00 0.00 55 1011.8
20260502223033 72 352 0.9 5.2 0.00 0.00 0.00 55 1011.9
20260502222513 73 351 0.9 5.2 0.00 0.00 0.00 53 1011.9
20260502222013 72 121 1.7 5.2 0.00 0.00 0.00 53 1011.9
20260502221532 72 71 0.9 4.3 0.00 0.00 0.00 55 1012.0
20260502221014 72 345 1.7 5.2 0.00 0.00 0.00 53 1012.1
20260502220511 72 321 1.7 5.2 0.00 0.00 0.00 54 1012.2
20260502220031 72 270 1.7 5.2 0.00 0.00 0.00 54 1012.4
20260502215514 71 337 0.9 7.0 0.00 0.00 0.00 54 1012.4
20260502215013 72 34 0.0 7.0 0.00 0.00 0.00 54 1012.4
20260502214530 71 288 2.6 7.0 0.00 0.00 0.00 54 1012.5
20260502214014 71 0 0.9 6.1 0.00 0.00 0.00 55 1012.4
20260502213514 71 0 1.7 6.1 0.00 0.00 0.00 54 1012.5